Flag for U.S.A. Weather past 2 weeks in Dallas, Texas, U.S.A.

Now
59 °F

Clear.


Feels Like: 56 °F
Forecast: 50 / 65 °F
Wind: 16 mph from Southeast

Location: Dallas Love Field


UV Index: 0 (Low)

Visibility: 10 mi


Pressure: 29.99 "Hg

Humidity: 49%

Dew point: 40 °F

Location of DallasLocation

Historic Weather in Dallas

°F

Dallas temperature yesterday

Maximum temperature yesterday: 63 °F (at 3:53 PM)
Minimum temperature yesterday: 38 °F (at 5:53 AM)
Average temperature yesterday: 51 °F

Past Weeks' High & Low Weather Summary

 TemperatureHumidityPressure
High86 °F (Apr 10, 3:53 PM)93% (Apr 6, 8:53 PM)30.33 "Hg (Apr 6, 8:53 PM)
Low38 °F (Apr 15, 5:53 AM)15% (Apr 15, 3:53 PM)29.57 "Hg (Apr 13, 7:53 PM)
Average63 °F59%29.94 "Hg
* Reported Apr 1 9:53 PM — Apr 16 9:53 PM, Dallas, Weather by CustomWeather, © 2014

Note: Actual official high and low records may vary slightly from our data, if they occured in-between our weather recording intervals... More about our weather records

Advertising

Historic Weather Conditions — Data for Previous 24 hours

 ConditionsComfort  
Time TempWeatherWind HumidityBarometerVisibility
9:53 PM
Apr 16
59 °FClear.16 mph49%29.99 "Hg10 mi
8:53 PM61 °FSunny.16 mph48%29.96 "Hg10 mi
7:53 PM63 °FPassing clouds.15 mph43%29.94 "Hg10 mi
6:53 PM65 °FPassing clouds.18 mph40%29.94 "Hg10 mi
5:53 PM68 °FBroken clouds.20 mph35%29.94 "Hg10 mi
4:53 PM68 °FPartly sunny.20 mph31%29.94 "Hg10 mi
3:53 PM67 °FBroken clouds.26 mph31%29.97 "Hg9 mi
2:53 PM68 °FPartly sunny.23 mph28%30.00 "Hg10 mi
1:53 PM64 °FPartly sunny.18 mph32%30.03 "Hg10 mi
12:53 PM63 °FPartly sunny.21 mph30%30.06 "Hg10 mi
11:53 AM62 °FPartly sunny.24 mph31%30.10 "Hg10 mi
10:53 AM59 °FPartly sunny.15 mph36%30.12 "Hg9 mi
9:53 AM55 °FPartly sunny.23 mph40%30.12 "Hg10 mi
8:53 AM50 °FPartly sunny.17 mph48%30.13 "Hg10 mi
7:53 AM46 °FPassing clouds.10 mph56%30.13 "Hg9 mi
6:53 AM46 °FPassing clouds.13 mph54%30.10 "Hg10 mi
5:53 AM46 °FPassing clouds.9 mph51%30.09 "Hg10 mi
4:53 AM49 °FPassing clouds.17 mph46%30.08 "Hg10 mi
3:53 AM48 °FPassing clouds.12 mph48%30.08 "Hg10 mi
2:53 AM50 °FPassing clouds.13 mph44%30.09 "Hg10 mi
1:53 AM48 °FPassing clouds.8 mph52%30.10 "Hg10 mi
12:53 AM48 °FClear.10 mph50%30.11 "Hg10 mi
11:53 PM
Apr 15
53 °FClear.16 mph38%30.12 "Hg10 mi
10:53 PM54 °FClear.9 mph35%30.13 "Hg10 mi
Weather by CustomWeather, © 2014

See weather overview